Showing default

IRIDIUM 142, 43256

Orbit data source: Space-Track

IRIDIUM 142, 43256 is a payload satellite owned by Iridium (US) in LEO that was launched on Fri, 30 Mar 2018 UTC via an FALCON 9 launch vehicle from the Air Force Western Test Range (AFWTR). Payload-class satellites include a variety of spacecraft equipped with specific instruments for various scientific and technological missions. These include communications satellites like Starlink; space stations such as the ISS; scientific satellites like the Hubble; Earth observation satellites from companies like Planet Labs, Umbra, and HawkEye 360; GPS; miniature CubeSats for education and research; and military/defense satellites.

Loading next visibility...
Identifier
43256, 2018-030H
Orbit
LEO
Country
Flag of USUS
Related business
Manufacturer
OATK SSG Gilbert
Mission
Operational Commercial Communications
Bus & Motor
ELITEBUS, Unknown motor
Mass
860 kg wet, 700 kg dry
Launch date (UTC)
2018-03-30 (7 years ago)
Launch vehicle
FALCON 9
Launch site
Air Force Western Test Range (AFWTR)
Object type
Payload
Rocket body
Debris
Shape & HBR
Trap Box + 2 Pan, 4.7 m
Radar Cross Section
14.423 m², Large (>1 m²)

Expand to show TLE details & history
Last TLE update: 8 hours ago

TLE from 8 hours ago
0 IRIDIUM 142
1 43256U 18030H   25258.64073460  .00000092  00000-0  25662-4 0  9990
2 43256  86.3953  45.1102 0002497  83.4315 276.7165 14.34218022390783
Epoch: 2025-09-15T15:22Z
TLE epoch observation values (Epoch: 2025-09-15T15:22:39.469Z)
Latitude
-0.00002°
Longitude
179.60326°
Altitude
780.509 km
Speed
7.464 km/s
True Right ascension
03h 00m 26s
True Declination
0° 00' 00"
Sunlit
Object was in full shadow at epoch
Visualization orbit readout
Latitude
Unknown
Longitude
Unknown
Altitude
Unknown
Speed
Unknown
Apparent Right ascension
Unknown
Apparent Declination
Unknown
Sunlit
N/A
Visualization observer readout
Local Sidereal Time
15:48:21
Azimuth
Unknown
Elevation
Unknown
Doppler factor
Unknown
Orbital elements
Apogee altitude
776.417 km
Perigee altitude
772.845 km
Semi-major axis
7,152.768 km
Eccentricity
0.00025
Inclination
86.3953°
RAAN
45.1102°
Arg. of periapsis
83.4315°
True anomaly
276.68808°
Mean anomaly
276.7165°
Eccentric anomaly
276.70229°
Mean motion
3.58783 °/min
Orbital period
100.34 mins
BSTAR
0.000025662
Loading maneuver chart data...
Computing Atmospheric mass density...
Loading historical data...
Loading historical data...
Loading historical data...
Loading historical data...
Loading historical data...
Loading historical data...
Loading historical data...

Documentation

Showing up to 5 results
|